LEMUR-2-MCCULLAGH (43051 NORAD) Tracking and Keplerian Element Data

This shows tracking and keplerian element data for the satellite.

Feedback or suggestion? Click here.




ElementValue
Catalog43051
NameLEMUR-2-MCCULLAGH
Epoch Orbit1064
Epoch Day45.27483504
Epoch Year2018
RAAN279.8314
Inclination51.639
Eccentricity7.6E-05
Argument of Perigee14.9537
Mean Anonmoly345.1469
Mean Motion15.38345873
Decay Rate4.206E-05
L11 43051U 17071Q 18045.27483504 .00004206 00000-0 11972-3 0 9995
L22 43051 51.6390 279.8314 0000760 14.9537 345.1469 15.38345873 10645

Live tracking and technical data element details for LEMUR-2-MCCULLAGH (NORAD 43051). LEMUR-2-MCCULLAGH can be tracked NOW for your location showing map with azimuth and elevation plus other details from your city location.

Track the satellite on the map from your city or location and see movement details for azimuth, elevation, latitude, longitude, range, height, and movement on the map or in text.







IsCatalogInMostPopularTable: catalog: 43051, numindb: 142
Update: records affected: 1



GetName: 43051 LEMUR-2-MCCULLAGH

Hit Count: updated at: Mon, 19 Nov 2018 14:29:14 GMT